This is the latest recevied weather packets stored in our database for station/object IZ1UQG-1. If no packets are shown the sender has not sent any weather packets the latest 10 day(s).
| Time | Temp. | Humidity | Pressure | Rain* | Wind** | Luminosity | Snow |
|---|---|---|---|---|---|---|---|
| 1777541646 | 15.56° C | 63% | 1024.9 hPa | 195.58 mm | - | - | - |
| 1777541346 | 15.56° C | 63% | 1024.8 hPa | 177.29 mm | - | - | - |
| 1777541046 | 15° C | 64% | 1024.8 hPa | 195.07 mm | - | - | - |
| 1777540746 | 15° C | 65% | 1024.8 hPa | 173.74 mm | - | - | - |
| 1777540446 | 15° C | 65% | 1024.9 hPa | 1.52 mm | - | - | - |
| 1777540146 | 15° C | 67% | 1024.8 hPa | 208.53 mm | - | - | - |
| 1777539846 | 15° C | 67% | 1024.8 hPa | 213.11 mm | - | - | - |
| 1777539546 | 15° C | 67% | 1024.8 hPa | 143.26 mm | - | - | - |
| 1777539246 | 15° C | 67% | 1024.8 hPa | 44.45 mm | - | - | - |
| 1777538946 | 14.44° C | 68% | 1024.9 hPa | 37.85 mm | - | - | - |
| 1777538646 | 14.44° C | 68% | 1024.8 hPa | 4.57 mm | - | - | - |
| 1777538346 | 14.44° C | 68% | 1024.7 hPa | 217.68 mm | - | - | - |
| 1777538046 | 14.44° C | 68% | 1024.8 hPa | 23.88 mm | - | - | - |
| 1777537746 | 14.44° C | 68% | 1024.8 hPa | 28.96 mm | - | - | - |
| 1777537446 | 14.44° C | 68% | 1024.8 hPa | 16.51 mm | - | - | - |
| 1777537146 | 14.44° C | 68% | 1024.8 hPa | 197.1 mm | - | - | - |
| 1777536846 | 14.44° C | 68% | 1024.6 hPa | 16 mm | - | - | - |
| 1777536546 | 14.44° C | 68% | 1024.5 hPa | 12.95 mm | - | - | - |
| 1777536246 | 14.44° C | 68% | 1024.6 hPa | 23.37 mm | - | - | - |
| 1777535946 | 14.44° C | 68% | 1024.6 hPa | 149.86 mm | - | - | - |
| 1777535646 | 14.44° C | 68% | 1024.4 hPa | 216.66 mm | - | - | - |
| 1777535346 | 14.44° C | 69% | 1024.5 hPa | 249.43 mm | - | - | - |
| 1777535046 | 14.44° C | 68% | 1024.4 hPa | 2.54 mm | - | - | - |
| 1777534746 | 13.89° C | 68% | 1024.4 hPa | 179.32 mm | - | - | - |
| 1777534446 | 13.89° C | 68% | 1024.3 hPa | 199.64 mm | - | - | - |
* Rain latest hour (hover to see other rain measurements)
** Current wind speed in m/s (hover to see current wind gust speed)